OBJECT P, 43771

Orbit data source: Space-Track

You're viewing an Uncataloged Satellite

Recently launched and/or uncataloged satellites may have evolving metadata. Metadata may include but not limited to: Owner, Maufacturer, Bus, Motor, and Mission.

OBJECT P, 43771 is a satellite in SSO that was launched on Mon, 03 Dec 2018 UTC via an FALCON 9 launch vehicle from the Air Force Western Test Range (AFWTR). Unknown objects in Earth's orbit typically refer to objects detected orbiting the Earth but have not yet been identified or cataloged. These objects could be anything from previously untracked satellites, spent rocket stages, debris from satellite collisions, or even natural meteoroids temporarily captured by Earth's gravity.

Loading next visibility...
Identifier
43771, 2018-099P
Orbit
SSO
Country
Flag of TBDTBD
Related business
None
Manufacturer
Unknown
Mission
Non-operational Amateur Technology
Bus & Motor
Unknown
Mass
Unknown
Launch date (UTC)
2018-12-03 (7 years ago)
Launch vehicle
FALCON 9
Launch site
Air Force Western Test Range (AFWTR)
Object type
Unknown
Shape & HBR
Box + Inf Sphere + 4 Pan, 15.0 m
Radar Cross Section
1.830 m², Small (<0.1 m²)

Expand to show TLE details & history
Last TLE update: 12 hours ago

TLE from 12 hours ago
0 OBJECT P
1 43771U 18099P   26034.42360730  .00019771  00000-0  69378-3 0  9990
2 43771  97.4441  97.5944 0010211  46.4043 313.8043 15.29412859393066
Epoch: 2026-02-03T10:09Z
TLE epoch observation values (Epoch: 2026-02-03T10:09:59.670Z)
Latitude
-0.00002°
Longitude
171.49103°
Altitude
475.825 km
Speed
7.631 km/s
True Right ascension
06h 30m 22s
True Declination
0° 00' 00"
Sunlit
Object was in full shadow at epoch
Visualization orbit readout
Latitude
Unknown
Longitude
Unknown
Altitude
Unknown
Speed
Unknown
Apparent Right ascension
Unknown
Apparent Declination
Unknown
Sunlit
N/A
Visualization observer readout
Local Sidereal Time
00:34:09
Azimuth
Unknown
Elevation
Unknown
Doppler factor
Unknown
Orbital elements
Apogee altitude
481.519 km
Perigee altitude
467.524 km
Semi-major axis
6,852.658 km
Eccentricity
0.00102
Inclination
97.4441°
RAAN
97.5944°
Arg. of periapsis
46.4043°
True anomaly
313.71978°
Mean anomaly
313.8043°
Eccentric anomaly
313.76205°
Mean motion
3.82608 °/min
Orbital period
94.09 mins
BSTAR
0.00069378
Loading maneuver chart data...
Computing Atmospheric mass density...
Loading historical data...
Loading historical data...
Loading historical data...
Loading historical data...
Loading historical data...
Loading historical data...
Loading historical data...

Documentation

Showing up to 5 results
|